Juneau, WI

3:59 AM CDT on July 31, 2016 (GMT -0500)
Dodge County

Weather History for KUNU - October, 2013

Change the Weather History Date:

Saturday, October 19, 2013

  Actual Average Record
Temperature  
Mean Temperature 42 °F -  
Max Temperature 51 °F 55 °F 78 °F (2000)
Min Temperature 32 °F 39 °F 17 °F (1992)
Degree Days  
Heating Degree Days 24    
Moisture  
Dew Point 34 °F    
Average Humidity 81    
Maximum Humidity 100    
Minimum Humidity 39    
Precipitation  
Precipitation 0.00 in - - ()
Sea Level Pressure  
Sea Level Pressure 29.80 in    
Wind  
Wind Speed 5 mph (SW)    
Max Wind Speed 25 mph    
Max Gust Speed 34 mph    
Visibility 10 miles    
Events Rain    
Averages and records for this station are not official NWS values.
T = Trace of Precipitation, MM = Missing Value Source: NWS Daily Summary

Daily Weather History Graph

Daily Weather History Graph

Search for Another Location

Airport or City:

Trip Planner

Search our weather history database for the weather conditions in past years. The results will help you decide how hot, cold, wet, or windy it might be!

Date:

Astronomy

Oct. 19, 2013 Rise Set
Actual Time 7:13 AM CDT 6:04 PM CDT
Civil Twilight 6:44 AM CDT 6:33 PM CDT
Nautical Twilight 6:11 AM CDT 7:06 PM CDT
Astronomical Twilight 5:38 AM CDT 7:39 PM CDT
Moon 6:30 PM CDT (10/19) 7:53 AM CDT (10/19)
Length of Visible Light 11h 48m
Length of Day
10h 50m
Waxing Gibbous, 99% of the Moon is Illuminated
Oct 19
Waxing Gibbous
Oct 26
Last Quarter
Nov 3
New
Nov 9
First Quarter
Nov 17
Full

Hourly Weather History & Observations

Time (CDT) Temp. Windchill Dew Point Humidity Pressure Visibility Wind Dir Wind Speed Gust Speed Precip Events Conditions
12:15 AM 38.8 °F 35.4 °F 35.8 °F 89% 29.91 in 10.0 mi SW 4.6 mph - N/A   Scattered Clouds
12:35 AM 38.5 °F - 35.6 °F 89% 29.90 in 10.0 mi Calm Calm - N/A   Scattered Clouds
12:55 AM 38.7 °F 36.3 °F 35.2 °F 87% 29.90 in 10.0 mi WSW 3.5 mph - N/A   Scattered Clouds
1:15 AM 38.8 °F - 35.2 °F 87% 29.89 in 10.0 mi Calm Calm - N/A   Clear
1:35 AM 37.8 °F 35.3 °F 35.1 °F 90% 29.88 in 10.0 mi SSW 3.5 mph - N/A   Clear
1:55 AM 37.6 °F 35.1 °F 35.1 °F 91% 29.88 in 10.0 mi SSW 3.5 mph - N/A   Scattered Clouds
2:15 AM 37.6 °F 35.1 °F 35.2 °F 91% 29.87 in 10.0 mi SSW 3.5 mph - N/A   Mostly Cloudy
2:35 AM 37.4 °F - 35.2 °F 92% 29.87 in 10.0 mi Calm Calm - N/A   Mostly Cloudy
2:55 AM 37.4 °F - 35.2 °F 92% 29.86 in 10.0 mi Calm Calm - N/A   Scattered Clouds
3:15 AM 37.0 °F 34.5 °F 34.9 °F 92% 29.85 in 10.0 mi SW 3.5 mph - N/A   Clear
3:35 AM 37.0 °F 34.5 °F 35.1 °F 93% 29.84 in 10.0 mi SSW 3.5 mph - N/A   Clear
3:55 AM 36.5 °F 32.7 °F 35.1 °F 95% 29.84 in 10.0 mi SSW 4.6 mph - N/A   Clear
4:15 AM 36.5 °F 33.9 °F 35.2 °F 95% 29.83 in 10.0 mi SSW 3.5 mph - N/A   Clear
4:35 AM 36.0 °F 33.3 °F 35.1 °F 97% 29.83 in 10.0 mi SW 3.5 mph - N/A   Clear
4:55 AM 36.1 °F 33.5 °F 35.4 °F 97% 29.83 in 10.0 mi SSW 3.5 mph - N/A   Clear
5:15 AM 35.8 °F - 35.1 °F 97% 29.82 in 10.0 mi Calm Calm - N/A   Clear
5:35 AM 35.6 °F 31.7 °F 35.2 °F 99% 29.82 in 10.0 mi SSW 4.6 mph - N/A   Clear
5:55 AM 35.1 °F 32.2 °F 34.7 °F 99% 29.82 in 7.0 mi SW 3.5 mph - N/A   Clear
6:15 AM 34.2 °F 31.2 °F 34.0 °F 99% 29.82 in 4.0 mi SSW 3.5 mph - N/A   Clear
6:35 AM 33.8 °F 30.8 °F 33.8 °F 100% 29.82 in 10.0 mi SSW 3.5 mph - N/A   Clear
6:55 AM 34.0 °F 31.0 °F 34.0 °F 100% 29.82 in 10.0 mi South 3.5 mph - N/A   Clear
7:15 AM 32.9 °F 29.8 °F 32.4 °F 98% 29.82 in 10.0 mi SW 3.5 mph - N/A   Scattered Clouds
7:35 AM 33.4 °F 29.1 °F 33.4 °F 100% 29.82 in 10.0 mi SSW 4.6 mph - N/A   Scattered Clouds
7:55 AM 33.4 °F 30.4 °F 33.4 °F 100% 29.82 in 10.0 mi SSW 3.5 mph - N/A   Clear
8:15 AM 34.2 °F - 34.0 °F 99% 29.82 in 10.0 mi Calm Calm - N/A   Clear
8:35 AM 36.1 °F - 34.7 °F 94% 29.82 in 10.0 mi Calm Calm - N/A   Clear
8:55 AM 38.5 °F - 34.5 °F 86% 29.81 in 10.0 mi Calm Calm - N/A   Clear
9:15 AM 40.8 °F - 33.6 °F 76% 29.80 in 10.0 mi Calm Calm - N/A   Clear
9:35 AM 42.3 °F 38.6 °F 33.8 °F 72% 29.80 in 10.0 mi SSW 5.8 mph - N/A   Clear
9:55 AM 43.9 °F 39.9 °F 33.6 °F 67% 29.80 in 10.0 mi SSW 6.9 mph - N/A   Clear
10:15 AM 44.8 °F 39.4 °F 32.4 °F 62% 29.80 in 10.0 mi SSW 10.4 mph - N/A   Clear
10:35 AM 46.4 °F 41.5 °F 32.2 °F 58% 29.79 in 10.0 mi SSW 10.4 mph - N/A   Clear
10:55 AM 46.4 °F 41.5 °F 29.7 °F 52% 29.78 in 10.0 mi SW 10.4 mph - N/A   Scattered Clouds
11:15 AM 45.5 °F 40.8 °F 30.7 °F 56% 29.78 in 10.0 mi SW 9.2 mph - N/A   Mostly Cloudy
11:35 AM 46.4 °F 41.1 °F 30.4 °F 54% 29.78 in 10.0 mi WSW 11.5 mph - N/A   Overcast
11:55 AM 45.9 °F 40.0 °F 30.9 °F 56% 29.78 in 10.0 mi SW 12.7 mph - N/A   Overcast
1:55 PM 49.3 °F - 28.2 °F 44% 29.74 in 10.0 mi WSW 15.0 mph 21.9 mph N/A   Scattered Clouds
2:15 PM 49.5 °F - 26.6 °F 41% 29.73 in 10.0 mi WSW 12.7 mph 19.6 mph N/A   Mostly Cloudy
2:35 PM 48.7 °F - 26.2 °F 42% 29.73 in 10.0 mi WSW 11.5 mph 18.4 mph N/A   Scattered Clouds
2:55 PM 51.1 °F - 27.7 °F 40% 29.73 in 10.0 mi SW 16.1 mph 19.6 mph N/A   Scattered Clouds
3:15 PM 50.4 °F - 26.4 °F 39% 29.72 in 10.0 mi SW 12.7 mph - N/A   Overcast
3:35 PM 49.3 °F - 27.1 °F 42% 29.72 in 10.0 mi WSW 11.5 mph 18.4 mph N/A   Overcast
3:55 PM 50.0 °F - 28.8 °F 44% 29.73 in 10.0 mi South 13.8 mph - N/A   Mostly Cloudy
4:15 PM 49.1 °F - 24.8 °F 39% 29.73 in 10.0 mi WSW 9.2 mph - N/A   Scattered Clouds
4:35 PM 46.6 °F - 31.3 °F 55% 29.75 in 10.0 mi WSW 25.3 mph 34.5 mph N/A   Mostly Cloudy
4:55 PM 43.2 °F 34.7 °F 34.0 °F 70% 29.76 in 10.0 mi SW 19.6 mph 25.3 mph N/A   Overcast
5:15 PM 41.7 °F 35.6 °F 36.7 °F 82% 29.76 in 7.0 mi SSW 10.4 mph - N/A Rain Rain
5:35 PM 41.5 °F 37.1 °F 37.2 °F 85% 29.76 in 10.0 mi SSW 6.9 mph - N/A   Overcast
5:55 PM 41.4 °F 37.6 °F 37.6 °F 86% 29.76 in 10.0 mi SSW 5.8 mph - N/A   Overcast
6:15 PM 41.4 °F 37.6 °F 37.8 °F 87% 29.76 in 10.0 mi South 5.8 mph - N/A   Overcast
6:35 PM 41.4 °F 36.8 °F 37.6 °F 86% 29.76 in 10.0 mi South 6.9 mph - N/A   Overcast
6:55 PM 41.0 °F 38.0 °F 37.6 °F 88% 29.77 in 10.0 mi SSW 4.6 mph - N/A   Overcast
7:15 PM 39.6 °F 35.4 °F 37.0 °F 91% 29.77 in 10.0 mi South 5.8 mph - N/A   Scattered Clouds
7:35 PM 38.7 °F 35.2 °F 36.7 °F 93% 29.77 in 10.0 mi SSW 4.6 mph - N/A   Scattered Clouds
7:55 PM 38.5 °F 33.4 °F 37.4 °F 96% 29.77 in 10.0 mi South 6.9 mph - N/A   Clear
8:15 PM 38.3 °F 33.9 °F 37.4 °F 97% 29.77 in 10.0 mi South 5.8 mph - N/A   Clear
8:35 PM 39.2 °F 34.2 °F 37.4 °F 93% 29.77 in 10.0 mi SSW 6.9 mph - N/A   Mostly Cloudy
8:55 PM 40.1 °F 34.7 °F 38.3 °F 93% 29.77 in 10.0 mi SSW 8.1 mph - N/A   Overcast
9:15 PM 40.6 °F 36.0 °F 37.8 °F 89% 29.77 in 10.0 mi SSW 6.9 mph - N/A   Overcast
9:35 PM 41.0 °F 35.2 °F 37.8 °F 88% 29.77 in 10.0 mi SW 9.2 mph - N/A   Overcast
9:55 PM 41.0 °F 36.4 °F 37.4 °F 87% 29.77 in 10.0 mi SW 6.9 mph - N/A   Overcast
10:15 PM 40.1 °F 35.3 °F 37.4 °F 90% 29.78 in 10.0 mi WSW 6.9 mph - N/A   Overcast
10:35 PM 39.7 °F 34.9 °F 37.2 °F 91% 29.78 in 10.0 mi SW 6.9 mph - N/A   Overcast
10:55 PM 38.8 °F 33.8 °F 36.3 °F 91% 29.79 in 10.0 mi SW 6.9 mph - N/A   Mostly Cloudy
11:15 PM 39.9 °F 34.5 °F 36.9 °F 89% 29.78 in 10.0 mi SW 8.1 mph - N/A   Mostly Cloudy
11:35 PM 37.8 °F 33.3 °F 35.8 °F 93% 29.78 in 10.0 mi WSW 5.8 mph - N/A   Mostly Cloudy
11:55 PM 38.3 °F 33.2 °F 37.0 °F 95% 29.79 in 10.0 mi WSW 6.9 mph - N/A   Overcast